Volver al catálogo

ONEWEB-0391

ActivoComunicacionesPO
NORAD 50471·PAYLOAD·🇬🇧 United Kingdom

Lanzado Dec 27, 2021 desde Baikonur Cosmodrome

Loading…

Próximos Pases (próximas 24 horas)

TLE

ActualizadoSource: CelesTrak SupGP

Época: Sep 14, 2026, 23:10 UTC

1 50471C 21132C   26257.96542083 -.00000890  00000+0 -22949-2 0  2578
2 50471  87.9198 348.0500 0002038 127.4363 264.7785 13.17647597    10

Sigue ONEWEB-0391 en tiempo real con AllMySat

Download on the App Store